When you browse on this site, cookies collect data to enhance your experience and personalize the content and advertising you see.
Visit our Privacy Policy to learn more. By continuing to use the site, you agree to this use of cookies and data.
  • In Lithuania
  • List of Countries
  • For 7 days
  • Water Temperature
  • Satellite Maps
  • Weather Map
  • Weather Widgets
  • user-avatar
    Login

    Hourly Weather Innsbruck

    Today, 23 April, Tuesday

    Time Temperature Precipitation Wind Pressure Humidity
    00:00 -1°C° 0 mm 4 mps 588 mmHg 83%
    01:00 -1°C° 0 mm 4 mps 588 mmHg 84%
    02:00 -1°C° 0 mm 4 mps 587 mmHg 82%
    03:00 -1°C° 0 mm 4 mps 587 mmHg 81%
    04:00 -2°C° 0 mm 4 mps 586 mmHg 80%
    05:00 -1°C° 0.1 mm 4 mps 586 mmHg 78%
    06:00 0°C° 0.1 mm 4 mps 587 mmHg 76%
    07:00 +1°C° 0.1 mm 4 mps 587 mmHg 73%
    08:00 +3°C° 0.1 mm 4 mps 587 mmHg 69%
    09:00 +4°C° 0.1 mm 3 mps 588 mmHg 65%
    10:00 +7°C° 0.1 mm 3 mps 588 mmHg 60%
    11:00 +7°C° 0.1 mm 3 mps 588 mmHg 59%
    12:00 +7°C° 0.1 mm 3 mps 588 mmHg 58%
    13:00 +7°C° 0.1 mm 3 mps 588 mmHg 57%
    14:00 +7°C° 0.1 mm 3 mps 588 mmHg 59%
    15:00 +7°C° 0.1 mm 3 mps 588 mmHg 60%
    16:00 +7°C° 0.1 mm 3 mps 588 mmHg 62%
    17:00 +5°C° 0 mm 3 mps 587 mmHg 67%
    18:00 +4°C° 0 mm 3 mps 587 mmHg 72%
    19:00 +3°C° 0 mm 3 mps 587 mmHg 76%
    20:00 +2°C° 0 mm 3 mps 587 mmHg 78%
    21:00 +1°C° 0 mm 3 mps 587 mmHg 80%
    22:00 +1°C° 0 mm 3 mps 587 mmHg 82%
    23:00 +1°C° 0 mm 3 mps 587 mmHg 82%

    Tomorrow, 24 April, Wednesday

    Time Temperature Precipitation Wind Pressure Humidity
    00:00 +1°C° 0 mm 3 mps 587 mmHg 82%
    01:00 +1°C° 0 mm 3 mps 588 mmHg 82%
    02:00 0°C° 0 mm 3 mps 588 mmHg 83%
    03:00 -1°C° 0 mm 4 mps 588 mmHg 84%
    04:00 -1°C° 0 mm 4 mps 588 mmHg 84%
    05:00 0°C° 0 mm 4 mps 589 mmHg 82%
    06:00 0°C° 0 mm 4 mps 589 mmHg 79%
    07:00 +1°C° 0 mm 4 mps 590 mmHg 77%
    08:00 +4°C° 0 mm 4 mps 591 mmHg 71%
    09:00 +5°C° 0 mm 4 mps 592 mmHg 65%
    10:00 +7°C° 0 mm 4 mps 593 mmHg 60%
    11:00 +7°C° 0 mm 4 mps 593 mmHg 59%
    12:00 +8°C° 0 mm 4 mps 593 mmHg 58%
    13:00 +8°C° 0 mm 4 mps 593 mmHg 57%
    14:00 +8°C° 0 mm 5 mps 593 mmHg 58%
    15:00 +8°C° 0 mm 5 mps 593 mmHg 60%
    16:00 +7°C° 0 mm 5 mps 593 mmHg 62%
    17:00 +6°C° 0 mm 5 mps 592 mmHg 66%
    18:00 +5°C° 0 mm 5 mps 592 mmHg 70%
    19:00 +3°C° 0 mm 5 mps 592 mmHg 75%
    20:00 +3°C° 0 mm 4 mps 593 mmHg 78%
    21:00 +1°C° 0 mm 4 mps 593 mmHg 81%
    22:00 +1°C° 0 mm 4 mps 594 mmHg 84%
    23:00 +1°C° 0 mm 4 mps 594 mmHg 84%

    Day after tomorrow, 25 April, Thursday

    Time Temperature Precipitation Wind Pressure Humidity
    00:00 +2°C° 0 mm 3 mps 594 mmHg 85%
    01:00 +2°C° 0 mm 3 mps 595 mmHg 86%
    02:00 +1°C° 0 mm 3 mps 594 mmHg 85%
    03:00 0°C° 0 mm 4 mps 594 mmHg 84%
    04:00 0°C° 0 mm 4 mps 594 mmHg 83%
    05:00 +1°C° 0 mm 4 mps 594 mmHg 80%
    06:00 +1°C° 0 mm 4 mps 595 mmHg 77%
    07:00 +3°C° 0 mm 4 mps 595 mmHg 74%
    08:00 +4°C° 0 mm 4 mps 595 mmHg 69%
    09:00 +6°C° 0 mm 4 mps 596 mmHg 63%
    10:00 +7°C° 0 mm 4 mps 597 mmHg 58%
    11:00 +8°C° 0 mm 4 mps 597 mmHg 56%
    12:00 +10°C° 0 mm 4 mps 597 mmHg 55%
    13:00 +10°C° 0 mm 4 mps 597 mmHg 53%
    14:00 +10°C° 0 mm 4 mps 597 mmHg 54%
    15:00 +10°C° 0 mm 4 mps 597 mmHg 55%
    16:00 +10°C° 0 mm 4 mps 596 mmHg 56%
    17:00 +8°C° 0.1 mm 3 mps 596 mmHg 62%
    18:00 +7°C° 0.1 mm 3 mps 595 mmHg 69%
    19:00 +5°C° 0.1 mm 3 mps 595 mmHg 76%
    20:00 +4°C° 0 mm 3 mps 595 mmHg 79%
    21:00 +3°C° 0 mm 3 mps 594 mmHg 82%
    22:00 +3°C° 0 mm 3 mps 594 mmHg 86%
    23:00 +3°C° 0.1 mm 3 mps 594 mmHg 86%

    26 April, Friday

    Time Temperature Precipitation Wind Pressure Humidity
    00:00 +2°C° 0.1 mm 3 mps 594 mmHg 86%
    01:00 +2°C° 0.1 mm 3 mps 594 mmHg 87%
    02:00 +2°C° 0 mm 3 mps 594 mmHg 87%
    03:00 +2°C° 0 mm 3 mps 594 mmHg 88%
    04:00 +1°C° 0 mm 3 mps 593 mmHg 89%
    05:00 +2°C° 0 mm 3 mps 593 mmHg 85%
    06:00 +3°C° 0 mm 3 mps 594 mmHg 82%
    07:00 +4°C° 0 mm 3 mps 594 mmHg 78%
    08:00 +5°C° 0 mm 3 mps 595 mmHg 72%
    09:00 +7°C° 0 mm 3 mps 595 mmHg 66%
    10:00 +8°C° 0 mm 3 mps 596 mmHg 60%
    11:00 +7°C° 0.9 mm 3 mps 596 mmHg 65%
    12:00 +5°C° 0.9 mm 3 mps 596 mmHg 71%
    13:00 +5°C° 0.9 mm 3 mps 596 mmHg 76%
    14:00 +2°C° 3.2 mm 3 mps 595 mmHg 81%
    15:00 0°C° 3.2 mm 3 mps 595 mmHg 87%
    16:00 -2°C° 3.2 mm 3 mps 594 mmHg 92%
    17:00 -3°C° 1.7 mm 2 mps 594 mmHg 93%
    18:00 -4°C° 1.7 mm 2 mps 594 mmHg 93%
    19:00 -5°C° 1.7 mm 2 mps 594 mmHg 94%
    20:00 -5°C° 0.7 mm 2 mps 594 mmHg 93%
    21:00 -5°C° 0.7 mm 2 mps 594 mmHg 93%
    22:00 -5°C° 0.7 mm 2 mps 594 mmHg 93%
    23:00 -3°C° 0.2 mm 1 mps 594 mmHg 92%

    27 April, Saturday

    Time Temperature Precipitation Wind Pressure Humidity
    00:00 -4°C° 0.2 mm 1 mps 594 mmHg 91%
    01:00 -4°C° 0.2 mm 1 mps 594 mmHg 91%
    02:00 -4°C° 0.1 mm 1 mps 594 mmHg 90%
    03:00 -4°C° 0.1 mm 1 mps 594 mmHg 90%
    04:00 -4°C° 0.1 mm 1 mps 594 mmHg 89%
    05:00 -3°C° 0 mm 1 mps 595 mmHg 87%
    06:00 -2°C° 0 mm 1 mps 595 mmHg 85%
    07:00 -1°C° 0 mm 1 mps 596 mmHg 83%
    08:00 0°C° 0.1 mm 1 mps 596 mmHg 84%
    09:00 +1°C° 0.1 mm 1 mps 597 mmHg 84%
    10:00 +2°C° 0.1 mm 1 mps 597 mmHg 84%
    11:00 +3°C° 0.2 mm 1 mps 597 mmHg 83%
    12:00 +4°C° 0.2 mm 1 mps 598 mmHg 81%
    13:00 +4°C° 0.2 mm 1 mps 598 mmHg 80%
    14:00 +4°C° 0.3 mm 1 mps 597 mmHg 80%
    15:00 +4°C° 0.3 mm 1 mps 597 mmHg 81%
    16:00 +4°C° 0.3 mm 1 mps 597 mmHg 81%
    17:00 +3°C° 0.3 mm 1 mps 596 mmHg 85%
    18:00 +2°C° 0.3 mm 1 mps 596 mmHg 89%
    19:00 +1°C° 0.3 mm 1 mps 595 mmHg 93%
    20:00 +1°C° 0.5 mm 1 mps 595 mmHg 94%
    21:00 0°C° 0.5 mm 1 mps 595 mmHg 94%
    22:00 0°C° 0.5 mm 1 mps 595 mmHg 95%
    23:00 0°C° 0.7 mm 1 mps 595 mmHg 95%

    28 April, Sunday

    Time Temperature Precipitation Wind Pressure Humidity
    00:00 0°C° 0.7 mm 1 mps 595 mmHg 94%
    01:00 0°C° 0.7 mm 1 mps 595 mmHg 94%
    02:00 -3°C° 1 mm 2 mps 595 mmHg 95%
    03:00 -4°C° 1 mm 2 mps 595 mmHg 95%
    04:00 -5°C° 1 mm 3 mps 595 mmHg 95%
    05:00 -6°C° 0 mm 3 mps 595 mmHg 93%
    06:00 -6°C° 0 mm 3 mps 595 mmHg 90%
    07:00 -6°C° 0 mm 3 mps 595 mmHg 87%
    08:00 -6°C° 0.1 mm 3 mps 595 mmHg 83%
    09:00 -5°C° 0.1 mm 3 mps 596 mmHg 80%
    10:00 -5°C° 0.1 mm 3 mps 596 mmHg 76%
    11:00 -4°C° 0.2 mm 3 mps 596 mmHg 76%
    12:00 -4°C° 0.2 mm 3 mps 596 mmHg 77%
    13:00 -4°C° 0.2 mm 3 mps 596 mmHg 77%
    14:00 -4°C° 0.3 mm 3 mps 596 mmHg 78%
    15:00 -4°C° 0.3 mm 3 mps 596 mmHg 79%
    16:00 -3°C° 0.3 mm 2 mps 596 mmHg 81%
    17:00 -4°C° 0.3 mm 2 mps 596 mmHg 84%
    18:00 -4°C° 0.3 mm 2 mps 596 mmHg 88%
    19:00 -3°C° 0.3 mm 1 mps 596 mmHg 92%
    20:00 -3°C° 0.7 mm 1 mps 596 mmHg 92%
    21:00 -3°C° 0.7 mm 1 mps 597 mmHg 92%
    22:00 -4°C° 0.7 mm 1 mps 597 mmHg 93%
    23:00 -4°C° 0.7 mm 1 mps 597 mmHg 93%
    Show more